User: anonymous   Login
Location: ???? ??????? ????
(31.2176°N, 31.6797°E)
Time: 03:16:21
(UTC+00:00)
Language:

ERS-2 - Orbit

View from above orbital plane
View from above orbital plane
View from above satellite
View from above satellite

Ground track
Ground track

The orbit data is extracted from the following two-line orbital elements,

1 23560U 95021A   21018.41635301  .00000806  00000-0  37438-4 0  9991
2 23560  98.5532 207.6448 0003976 144.4614 215.6885 15.23605744374848
Epoch (UTC): 18 January 2021 09:59:32
Eccentricity: 0.0003976
inclination: 98.5532°
perigee height: 492 km
apogee height: 498 km
right ascension of ascending node: 207.6448°
argument of perigee: 144.4614°
revolutions per day: 15.23605744
mean anomaly at epoch: 215.6885°
orbit number at epoch: 37484

The dashed part of the orbit path shows where the satellite is in the earth's shadow,  

DLR